GW5755 Weather Reports


time (UTC)temp
C
wind
direction
speed
KPH
gust
KPH
rain 1hr
cm
rain 24hr
cm
rain mn
cm
humidity
%
barometer
mb
20260505091308 25 344 27.4 40.2 0.00 0.00 0.00 30 1013.0
20260505090805 25 354 25.7 43.5 0.00 0.00 0.00 32 1013.4
20260505090303 25 353 29.0 41.8 0.00 0.00 0.00 31 1013.3
20260505085800 25 334 27.4 37.0 0.00 0.00 0.00 31 1013.2
20260505085258 25 323 25.7 38.6 0.00 0.00 0.00 30 1013.3
20260505084755 25 349 32.2 41.8 0.00 0.00 0.00 32 1013.1
20260505084255 25 352 33.8 40.2 0.00 0.00 0.00 31 1013.2
20260505083751 24 353 40.2 46.7 0.00 0.00 0.00 32 1013.4
20260505083248 25 345 35.4 40.2 0.00 0.00 0.00 34 1013.5
20260505082744 24 347 27.4 41.8 0.00 0.00 0.00 35 1013.4
20260505082241 24 15 32.2 43.5 0.00 0.00 0.00 36 1013.4
20260505081737 24 349 40.2 46.7 0.00 0.00 0.00 36 1013.6
20260505081235 24 357 35.4 40.2 0.00 0.00 0.00 36 1013.6
20260505080731 23 348 27.4 38.6 0.00 0.00 0.00 37 1013.6
20260505080227 23 345 37.0 41.8 0.00 0.00 0.00 38 1013.7
20260505075723 23 342 37.0 46.7 0.00 0.00 0.00 37 1013.5
20260505075220 23 340 43.5 46.7 0.00 0.00 0.00 37 1013.7
20260505074717 23 328 37.0 41.8 0.00 0.00 0.00 37 1013.5
20260505074214 23 322 41.8 48.3 0.00 0.00 0.00 36 1013.8
20260505073712 23 356 38.6 48.3 0.00 0.00 0.00 35 1013.7
20260505073210 23 343 35.4 49.9 0.00 0.00 0.00 38 1013.7
20260505072705 23 347 37.0 53.1 0.00 0.00 0.00 38 1013.5
20260505072202 22 334 32.2 48.3 0.00 0.00 0.00 38 1013.6
20260505071657 22 336 41.8 46.7 0.00 0.00 0.00 38 1013.7
20260505071155 22 355 46.7 49.9 0.00 0.00 0.00 38 1013.6
20260505070653 22 350 38.6 51.5 0.00 0.00 0.00 38 1013.5
20260505070148 22 340 40.2 54.7 0.00 0.00 0.00 42 1013.6
20260505065645 22 339 43.5 49.9 0.00 0.00 0.00 43 1013.5
20260505065142 22 317 38.6 46.7 0.00 0.00 0.00 42 1013.7
20260505064638 22 3 48.3 57.9 0.00 0.00 0.00 45 1013.7
20260505064136 22 351 46.7 53.1 0.00 0.00 0.00 43 1013.6
20260505063634 21 1 35.4 51.5 0.00 0.00 0.00 46 1013.5
20260505063130 22 341 46.7 53.1 0.00 0.00 0.00 44 1013.5
20260505062626 22 345 43.5 49.9 0.00 0.00 0.00 45 1013.5
20260505062124 21 351 38.6 46.7 0.00 0.00 0.00 48 1013.4
20260505061621 22 344 46.7 53.1 0.00 0.00 0.00 45 1013.6
20260505061119 21 344 40.2 53.1 0.00 0.00 0.00 48 1013.4
20260505060616 21 343 51.5 54.7 0.00 0.00 0.00 47 1013.6
20260505060113 21 332 37.0 54.7 0.00 0.00 0.00 49 1013.5
20260505055608 21 350 43.5 57.9 0.00 0.00 0.00 50 1013.3
20260505055105 21 343 48.3 54.7 0.00 0.00 0.00 50 1013.4
20260505054602 21 321 46.7 49.9 0.00 0.00 0.00 50 1013.5
20260505054100 21 340 46.7 57.9 0.00 0.00 0.00 52 1013.5
20260505053557 21 3 46.7 61.2 0.00 0.00 0.00 51 1013.4
20260505053053 21 342 53.1 57.9 0.00 0.00 0.00 52 1013.4
20260505052550 20 344 43.5 53.1 0.00 0.00 0.00 52 1013.5
20260505052048 20 333 51.5 57.9 0.00 0.00 0.00 52 1013.4
20260505051545 20 351 49.9 57.9 0.00 0.00 0.00 54 1013.1
20260505051043 20 348 46.7 51.5 0.00 0.00 0.00 53 1013.2
20260505050541 20 348 46.7 51.5 0.00 0.00 0.00 53 1013.0
20260505041508 20 327 41.8 51.5 0.00 0.00 0.00 57 1012.7
20260505041006 20 339 46.7 57.9 0.00 0.00 0.00 54 1012.6
20260505040503 20 351 38.6 43.5 0.00 0.00 0.00 56 1012.6
20260505040000 20 347 45.1 53.1 0.00 0.00 0.00 57 1012.7
20260505035455 20 0 51.5 54.7 0.00 0.00 0.00 58 1012.7
20260505034953 19 349 43.5 49.9 0.00 0.00 0.00 58 1012.6
20260505034449 19 351 37.0 51.5 0.00 0.00 0.00 59 1012.5
20260505033947 19 340 40.2 51.5 0.00 0.00 0.00 59 1012.3
20260505033443 19 333 49.9 61.2 0.00 0.00 0.00 59 1012.4
20260505032941 19 356 45.1 53.1 0.00 0.00 0.00 59 1012.4
20260505032439 19 353 45.1 53.1 0.00 0.00 0.00 60 1012.4
20260505031935 19 340 43.5 53.1 0.00 0.00 0.00 58 1012.2
20260505031432 19 351 40.2 61.2 0.00 0.00 0.00 59 1012.2
20260505030929 19 339 43.5 56.3 0.00 0.00 0.00 60 1012.4
20260505030424 19 346 48.3 51.5 0.00 0.00 0.00 60 1012.2
20260505025920 19 329 49.9 53.1 0.00 0.00 0.00 60 1012.2
20260505025418 19 345 45.1 51.5 0.00 0.00 0.00 60 1012.0
20260505024917 19 336 32.2 53.1 0.00 0.00 0.00 59 1012.2
20260505024414 19 341 40.2 49.9 0.00 0.00 0.00 58 1012.1
20260505023910 20 351 40.2 46.7 0.00 0.00 0.00 57 1012.0
20260505023408 19 351 29.0 48.3 0.00 0.00 0.00 56 1012.3
20260505022905 19 347 43.5 54.7 0.00 0.00 0.00 59 1012.3
20260505022402 20 353 49.9 57.9 0.00 0.00 0.00 58 1011.9
20260505021859 20 12 43.5 53.1 0.00 0.00 0.00 58 1011.8
20260505021355 20 350 51.5 54.7 0.00 0.00 0.00 58 1012.0
20260505020851 20 352 40.2 49.9 0.00 0.00 0.00 57 1012.0
20260505020347 20 350 32.2 48.3 0.00 0.00 0.00 59 1012.1
20260505015844 20 342 41.8 48.3 0.00 0.00 0.00 58 1011.9
20260505015341 20 345 40.2 53.1 0.00 0.00 0.00 57 1011.8
20260505014838 20 351 40.2 48.3 0.00 0.00 0.00 57 1011.9
20260505014335 20 339 38.6 51.5 0.00 0.00 0.00 57 1011.9
20260505013832 20 328 33.8 46.7 0.00 0.00 0.00 56 1011.8
20260505013329 20 341 43.5 57.9 0.00 0.00 0.00 55 1011.7
20260505012828 20 323 41.8 51.5 0.00 0.00 0.00 55 1011.7
20260505012325 20 341 46.7 53.1 0.00 0.00 0.00 54 1011.7
20260505011820 20 343 45.1 54.7 0.00 0.00 0.00 54 1011.8
20260505011318 20 348 48.3 51.5 0.00 0.00 0.00 54 1011.8
20260505010814 20 344 48.3 53.1 0.00 0.00 0.00 53 1011.8
20260505010310 20 325 41.8 51.5 0.00 0.00 0.00 56 1011.6
20260505005806 20 337 40.2 49.9 0.00 0.00 0.00 56 1011.9
20260505005304 20 339 37.0 49.9 0.00 0.00 0.00 56 1011.7
20260505004801 20 342 48.3 51.5 0.00 0.00 0.00 54 1011.6
20260505004256 20 341 48.3 53.1 0.00 0.00 0.00 53 1011.7
20260505003754 20 346 41.8 48.3 0.00 0.00 0.00 55 1011.7
20260505003252 20 355 40.2 51.5 0.00 0.00 0.00 54 1011.7
20260505002748 20 348 37.0 56.3 0.00 0.00 0.00 53 1011.9
20260505002245 20 322 48.3 56.3 0.00 0.00 0.00 53 1011.9
20260505001743 21 359 35.4 46.7 0.00 0.00 0.00 52 1012.1
20260505001240 21 344 38.6 51.5 0.00 0.00 0.00 49 1012.1
20260505000737 21 339 38.6 41.8 0.00 0.00 0.00 51 1012.0
20260505000235 21 335 30.6 46.7 0.00 0.00 0.00 50 1012.1
20260504235731 21 356 37.0 40.2 0.00 0.00 0.00 51 1012.1
20260504235227 21 355 45.1 51.5 0.00 0.00 0.00 50 1012.0
20260504234725 21 347 38.6 46.7 0.00 0.00 0.00 51 1012.2
20260504234222 21 348 45.1 54.7 0.00 0.00 0.00 50 1011.9
20260504233718 21 339 49.9 56.3 0.00 0.00 0.00 49 1012.1
20260504233214 21 346 43.5 51.5 0.00 0.00 0.00 51 1011.7
20260504232711 21 356 43.5 49.9 0.00 0.00 0.00 52 1012.0
20260504232208 21 336 35.4 53.1 0.00 0.00 0.00 50 1012.1
20260504231704 21 1 40.2 49.9 0.00 0.00 0.00 48 1011.9
20260504231201 21 351 45.1 49.9 0.00 0.00 0.00 51 1011.9
20260504230657 21 354 37.0 53.1 0.00 0.00 0.00 49 1011.9
20260504230156 21 336 38.6 48.3 0.00 0.00 0.00 46 1012.2
20260504225654 21 329 40.2 51.5 0.00 0.00 0.00 48 1012.0
20260504225149 21 344 38.6 49.9 0.00 0.00 0.00 51 1011.9
20260504224647 21 352 41.8 53.1 0.00 0.00 0.00 48 1012.1
20260504224143 21 353 35.4 48.3 0.00 0.00 0.00 47 1011.9
20260504223641 21 346 41.8 49.9 0.00 0.00 0.00 45 1012.1
20260504223136 21 344 33.8 53.1 0.00 0.00 0.00 49 1012.0
20260504222634 21 351 32.2 43.5 0.00 0.00 0.00 49 1012.2
20260504222131 22 358 37.0 41.8 0.00 0.00 0.00 49 1012.2
20260504221628 22 353 40.2 49.9 0.00 0.00 0.00 48 1012.1
20260504221125 22 350 45.1 61.2 0.00 0.00 0.00 48 1012.1
20260504220621 22 358 45.1 54.7 0.00 0.00 0.00 48 1012.2
20260504220119 22 348 41.8 49.9 0.00 0.00 0.00 48 1012.2
20260504215615 22 349 51.5 57.9 0.00 0.00 0.00 51 1012.2
20260504215113 22 328 35.4 43.5 0.00 0.00 0.00 46 1012.2
20260504214608 22 348 37.0 43.5 0.00 0.00 0.00 40 1011.9
20260504214105 22 351 35.4 48.3 0.00 0.00 0.00 40 1012.2
20260504213601 22 352 35.4 41.8 0.00 0.00 0.00 39 1012.2
20260504213058 22 348 48.3 57.9 0.00 0.00 0.00 39 1012.0
20260504212554 22 351 35.4 46.7 0.00 0.00 0.00 39 1012.0
20260504212052 22 353 40.2 53.1 0.00 0.00 0.00 39 1012.4
20260504211548 22 347 51.5 57.9 0.00 0.00 0.00 41 1012.0
20260504211045 23 356 37.0 51.5 0.00 0.00 0.00 41 1012.2
20260504210542 23 345 43.5 48.3 0.00 0.00 0.00 39 1012.4
20260504210039 23 347 43.5 46.7 0.00 0.00 0.00 40 1012.3
20260504205537 23 347 38.6 43.5 0.00 0.00 0.00 42 1012.3
20260504205035 23 29 35.4 41.8 0.00 0.00 0.00 40 1012.3
20260504204532 23 355 45.1 53.1 0.00 0.00 0.00 41 1012.3
20260504204031 23 344 40.2 46.7 0.00 0.00 0.00 40 1012.6
20260504203529 23 341 45.1 53.1 0.00 0.00 0.00 39 1012.2
20260504203026 23 345 35.4 40.2 0.00 0.00 0.00 40 1012.3
20260504202521 23 349 43.5 53.1 0.00 0.00 0.00 39 1012.5
20260504202019 23 353 49.9 56.3 0.00 0.00 0.00 39 1012.4
20260504201515 23 355 45.1 51.5 0.00 0.00 0.00 39 1012.5
20260504201013 23 356 49.9 57.9 0.00 0.00 0.00 39 1012.3
20260504200510 23 353 33.8 37.0 0.00 0.00 0.00 40 1012.6
20260504200006 23 343 51.5 56.3 0.00 0.00 0.00 39 1012.4
20260504195503 23 351 46.7 54.7 0.00 0.00 0.00 39 1012.3
20260504194959 23 331 43.5 48.3 0.00 0.00 0.00 38 1012.4
20260504194455 23 355 43.5 49.9 0.00 0.00 0.00 38 1012.3
20260504193951 23 337 48.3 54.7 0.00 0.00 0.00 38 1012.5
20260504193449 23 3 46.7 51.5 0.00 0.00 0.00 37 1012.4
20260504192947 23 338 38.6 46.7 0.00 0.00 0.00 38 1012.1
20260504192444 23 354 49.9 53.1 0.00 0.00 0.00 38 1011.9
20260504191943 23 345 45.1 53.1 0.00 0.00 0.00 39 1011.9
20260504191441 24 355 45.1 49.9 0.00 0.00 0.00 38 1012.1
20260504190935 24 355 45.1 49.9 0.00 0.00 0.00 38 1011.7
20260504190431 24 334 35.4 38.6 0.00 0.00 0.00 37 1011.7
20260504185928 24 341 41.8 46.7 0.00 0.00 0.00 36 1012.0
20260504185426 25 331 53.1 56.3 0.00 0.00 0.00 34 1011.7
20260504184921 25 331 53.1 56.3 0.00 0.00 0.00 34 1011.5
20260504184417 25 333 49.9 54.7 0.00 0.00 0.00 32 1011.6
20260504183913 25 335 46.7 49.9 0.00 0.00 0.00 32 1011.5
20260504183411 25 357 48.3 54.7 0.00 0.00 0.00 32 1011.6
20260504182909 25 345 48.3 53.1 0.00 0.00 0.00 30 1011.4
20260504182405 25 345 48.3 53.1 0.00 0.00 0.00 30 1011.3
20260504181902 25 345 48.3 53.1 0.00 0.00 0.00 30 1011.3
20260504181359 25 341 48.3 54.7 0.00 0.00 0.00 28 1011.4
20260504180858 25 341 48.3 54.7 0.00 0.00 0.00 28 1011.3
20260504180356 25 337 48.3 51.5 0.00 0.00 0.00 29 1011.4
20260504175854 25 337 48.3 51.5 0.00 0.00 0.00 29 1011.3
20260504175350 25 340 46.7 49.9 0.00 0.00 0.00 28 1011.2
20260504174849 25 353 48.3 51.5 0.00 0.00 0.00 28 1011.1
20260504174346 25 343 46.7 56.3 0.00 0.00 0.00 28 1011.1
20260504173843 25 350 43.5 51.5 0.00 0.00 0.00 27 1011.0
20260504173340 25 358 33.8 53.1 0.00 0.00 0.00 29 1011.0
20260504172837 25 0 41.8 53.1 0.00 0.00 0.00 29 1010.7
20260504172333 25 348 41.8 51.5 0.00 0.00 0.00 28 1010.8
20260504171829 25 347 45.1 53.1 0.00 0.00 0.00 29 1010.6
20260504171326 25 342 33.8 46.7 0.00 0.00 0.00 29 1010.6
20260504170824 25 341 46.7 51.5 0.00 0.00 0.00 29 1010.5
20260504170320 25 340 40.2 51.5 0.00 0.00 0.00 29 1010.5
20260504160238 26 339 33.8 40.2 0.00 0.00 0.00 27 1010.3
20260504150704 27 336 25.7 37.0 0.00 0.00 0.00 29 1010.3
20260504150201 28 10 29.0 37.0 0.00 0.00 0.00 28 1010.2
20260504141130 28 320 24.1 29.0 0.00 0.00 0.00 31 1010.5
20260504140627 28 328 24.1 29.0 0.00 0.00 0.00 31 1010.6
20260504140122 28 314 17.7 20.9 0.00 0.00 0.00 32 1010.6
20260504130550 28 319 16.1 24.1 0.00 0.00 0.00 35 1010.9
20260504110438 28 305 14.5 17.7 0.00 0.00 0.00 31 1011.9
20260504100401 27 334 20.9 29.0 0.00 0.00 0.00 35 1012.7